Regional Weather Roundup
Issued by NWS

Home | Current Version | Previous Version | Text Only | Print | Product List | Glossary Off
Versions: 1 2 3 4 5 6 7 8 9 10 11 12 13 14 15 16 17 18 19 20 21 22 23 24 25 26 27 28 29 30 31 32 33 34 35 36 37 38 39 40 41 42 43 44 45 46 47 48 49 50

000
ASUS43 KIND 152259
RWRIN

WEATHER ROUNDUP FOR INDIANA
NATIONAL WEATHER SERVICE INDIANAPOLIS IN
700 PM EDT MON SEP 15 2014

NOTE: "FAIR" INDICATES FEW OR NO CLOUDS BELOW 12,000 FEET WITH NO
SIGNIFICANT WEATHER AND/OR OBSTRUCTIONS TO VISIBILITY.

* - STATION DOES NOT REPORT WEATHER SUCH AS PRECIPITATION OR FOG.

+ - STATION NOT QUALITY CONTROLLED BY THE NATIONAL WEATHER SERVICE.
    USE DATA WITH CAUTION...ESPECIALLY DEWPOINT AND RELATIVE
    HUMIDITY OBSERVATIONS.

INZ001>003-010>013-019-020-160000-
NORTHWEST INDIANA

CITY           SKY/WX    TMP DP  RH WIND       PRES   REMARKS
GARY /AIRPORT/ LGT RAIN  55  54  94 CALM      30.11R
VALPARAISO     LGT RAIN  54  52  93 N5        30.11R FOG

$$

LMZ046-743>745-160000-
SOUTHERN LAKE MICHIGAN

STATION/POSITION TIME  TEMP WIND        PRES
                       AIR  DIR/SP/G
                 (UTC) (F)  (DEG/KT/KT) (MB)
MICHIGAN CITY    2200   56  210/  8/ 10   N/A

$$

INZ004-005-014>016-021>024-160000-
NORTH CENTRAL INDIANA

CITY           SKY/WX    TMP DP  RH WIND       PRES   REMARKS
ELKHART        CLOUDY    55  54  94 W5        30.12R
GOSHEN         CLOUDY    56  53  90 W5        30.11R
SOUTH BEND     CLOUDY    56  53  90 S5        30.11S

$$

INZ006>009-017-018-025>027-160000-
NORTHEAST INDIANA

CITY           SKY/WX    TMP DP  RH WIND       PRES   REMARKS
ANGOLA *+      CLOUDY    54  43  66 W3        30.10S
FORT WAYNE     LGT RAIN  56  54  93 N5        30.10R FOG

$$

INZ028-029-035-036-043>045-051>053-160000-
WEST CENTRAL INDIANA

CITY           SKY/WX    TMP DP  RH WIND       PRES   REMARKS
GREENCASTLE +  LGT RAIN  55  54  94 CALM      30.09S
LAFAYETTE      CLOUDY    57  54  89 N3        30.09R
TERRE HAUTE    CLOUDY    58  56  93 SE5       30.07F

$$

INZ030>032-037>040-046>048-054>057-064-065-160000-
CENTRAL INDIANA

CITY           SKY/WX    TMP DP  RH WIND       PRES   REMARKS
COLUMBUS       LGT RAIN  59  57  94 S9        30.07S FOG
INDIANAPOLIS   LGT RAIN  58  54  86 SW3       30.07F
-EAGLE CREEK   CLOUDY    58  54  86 CALM      30.07F
KOKOMO *+      CLOUDY    57  54  88 NW6       30.09R
MT COMFORT *+  CLOUDY    55  55 100 SW7       30.09R
SHELBYVILLE    LGT RAIN  60  54  80 W8        30.08R

$$

INZ033-034-041-042-049-050-058-059-160000-
EAST CENTRAL INDIANA

CITY           SKY/WX    TMP DP  RH WIND       PRES   REMARKS
MUNCIE         CLOUDY    59  54  83 CALM      30.07F

$$

INZ060-061-067>069-081>083-085>088-160000-
SOUTHWEST INDIANA

CITY           SKY/WX    TMP DP  RH WIND       PRES   REMARKS
EVANSVILLE     CLOUDY    74  56  53 S7        30.06S

$$

INZ062-063-066-070>080-084-089>092-160000-
SOUTH CENTRAL AND SOUTHEAST INDIANA

CITY           SKY/WX    TMP DP  RH WIND       PRES   REMARKS
BLOOMINGTON    LGT RAIN  58  56  93 S7        30.08F
SEYMOUR +      RAIN      63  59  88 CALM      30.12

$$



USA.gov is the U.S. government's official web portal to all federal, state and local government web resources and services.